When you browse on this site, cookies collect data to enhance your experience and personalize the content and advertising you see.
Visit our Privacy Policy to learn more. By continuing to use the site, you agree to this use of cookies and data.
  • In Hungary
  • List of Countries
  • For 7 days
  • Water Temperature
  • Weather Map
  • News
  • Weather Widgets
  • user-avatar
    Login

    Hourly Weather Taynoe

    Today, 26 February, Wednesday

    Time Temperature Precipitation Wind Pressure Humidity
    00:00 -3°C° 0 mm 4 mps 739 mmHg 83%
    01:00 -2°C° 0 mm 4 mps 738 mmHg 85%
    02:00 -3°C° 0 mm 4 mps 738 mmHg 92%
    03:00 -2°C° 0 mm 5 mps 737 mmHg 93%
    04:00 -2°C° 0 mm 5 mps 737 mmHg 94%
    05:00 -1°C° 0 mm 5 mps 736 mmHg 96%
    06:00 -1°C° 0.2 mm 5 mps 736 mmHg 96%
    07:00 -2°C° 0.2 mm 6 mps 735 mmHg 96%
    08:00 -2°C° 0.2 mm 6 mps 735 mmHg 96%
    09:00 -2°C° 0.7 mm 6 mps 735 mmHg 97%
    10:00 -2°C° 0.7 mm 6 mps 734 mmHg 97%
    11:00 -2°C° 0.7 mm 6 mps 734 mmHg 98%
    12:00 -2°C° 0.6 mm 6 mps 734 mmHg 98%
    13:00 0°C° 0.6 mm 5 mps 734 mmHg 98%
    14:00 0°C° 0.6 mm 5 mps 733 mmHg 98%
    15:00 0°C° 0.1 mm 5 mps 733 mmHg 98%
    16:00 0°C° 0.1 mm 5 mps 733 mmHg 97%
    17:00 0°C° 0.1 mm 5 mps 733 mmHg 96%
    18:00 0°C° 0 mm 4 mps 733 mmHg 97%
    19:00 0°C° 0 mm 4 mps 733 mmHg 97%
    20:00 +1°C° 0 mm 3 mps 734 mmHg 97%
    21:00 +1°C° 0.1 mm 3 mps 733 mmHg 97%
    22:00 +1°C° 0.1 mm 3 mps 733 mmHg 98%
    23:00 +1°C° 0.1 mm 3 mps 733 mmHg 98%

    Tomorrow, 27 February, Thursday

    Time Temperature Precipitation Wind Pressure Humidity
    00:00 +1°C° 0.2 mm 3 mps 733 mmHg 98%
    01:00 +1°C° 0.2 mm 3 mps 733 mmHg 97%
    02:00 +1°C° 0.2 mm 3 mps 733 mmHg 97%
    03:00 0°C° 0.1 mm 4 mps 732 mmHg 97%
    04:00 0°C° 0.1 mm 4 mps 732 mmHg 97%
    05:00 0°C° 0.1 mm 5 mps 731 mmHg 97%
    06:00 0°C° 0 mm 5 mps 731 mmHg 96%
    07:00 -1°C° 0 mm 6 mps 731 mmHg 96%
    08:00 -1°C° 0 mm 6 mps 731 mmHg 95%
    09:00 +1°C° 0 mm 6 mps 731 mmHg 96%
    10:00 +1°C° 0 mm 6 mps 731 mmHg 97%
    11:00 +1°C° 0 mm 6 mps 731 mmHg 97%
    12:00 +1°C° 0 mm 5 mps 731 mmHg 97%
    13:00 +1°C° 0 mm 5 mps 731 mmHg 97%
    14:00 +3°C° 0 mm 4 mps 731 mmHg 97%
    15:00 +1°C° 0.2 mm 4 mps 731 mmHg 97%
    16:00 +2°C° 0.2 mm 3 mps 731 mmHg 97%
    17:00 +2°C° 0.2 mm 3 mps 731 mmHg 97%
    18:00 +2°C° 0 mm 3 mps 732 mmHg 96%
    19:00 +2°C° 0 mm 3 mps 732 mmHg 95%
    20:00 +1°C° 0 mm 3 mps 732 mmHg 94%
    21:00 +1°C° 0 mm 3 mps 732 mmHg 93%
    22:00 +2°C° 0 mm 2 mps 733 mmHg 91%
    23:00 +1°C° 0 mm 2 mps 733 mmHg 90%

    Day after tomorrow, 28 February, Friday

    Time Temperature Precipitation Wind Pressure Humidity
    00:00 +1°C° 0 mm 2 mps 733 mmHg 91%
    01:00 +1°C° 0 mm 2 mps 733 mmHg 92%
    02:00 +2°C° 0 mm 1 mps 733 mmHg 93%
    03:00 +1°C° 0 mm 2 mps 733 mmHg 93%
    04:00 +1°C° 0 mm 2 mps 732 mmHg 93%
    05:00 +1°C° 0 mm 2 mps 732 mmHg 93%
    06:00 +1°C° 0.2 mm 2 mps 732 mmHg 92%
    07:00 +1°C° 0.2 mm 2 mps 732 mmHg 91%
    08:00 0°C° 0.2 mm 3 mps 732 mmHg 90%
    09:00 0°C° 0 mm 3 mps 733 mmHg 87%
    10:00 +1°C° 0 mm 3 mps 733 mmHg 85%
    11:00 0°C° 0 mm 4 mps 733 mmHg 83%
    12:00 0°C° 0 mm 4 mps 733 mmHg 79%
    13:00 +1°C° 0 mm 4 mps 734 mmHg 75%
    14:00 +1°C° 0 mm 4 mps 735 mmHg 72%
    15:00 0°C° 0 mm 4 mps 735 mmHg 73%
    16:00 0°C° 0 mm 4 mps 736 mmHg 75%
    17:00 -1°C° 0 mm 4 mps 737 mmHg 77%
    18:00 -2°C° 0 mm 4 mps 737 mmHg 78%
    19:00 -1°C° 0 mm 3 mps 738 mmHg 79%
    20:00 -2°C° 0 mm 3 mps 738 mmHg 81%
    21:00 -2°C° 0 mm 3 mps 739 mmHg 81%
    22:00 -2°C° 0 mm 3 mps 739 mmHg 81%
    23:00 -2°C° 0 mm 3 mps 739 mmHg 81%

    29 February, Saturday

    Time Temperature Precipitation Wind Pressure Humidity
    00:00 -2°C° 0 mm 3 mps 740 mmHg 80%
    01:00 -2°C° 0 mm 3 mps 740 mmHg 80%
    02:00 -2°C° 0 mm 3 mps 740 mmHg 79%
    03:00 -2°C° 0 mm 3 mps 740 mmHg 80%
    04:00 -2°C° 0 mm 2 mps 740 mmHg 80%
    05:00 -2°C° 0 mm 2 mps 740 mmHg 81%
    06:00 -1°C° 0 mm 2 mps 740 mmHg 80%
    07:00 -1°C° 0 mm 2 mps 741 mmHg 79%
    08:00 -1°C° 0 mm 2 mps 741 mmHg 77%
    09:00 +1°C° 0 mm 2 mps 741 mmHg 74%
    10:00 +2°C° 0 mm 2 mps 741 mmHg 71%
    11:00 +2°C° 0 mm 2 mps 741 mmHg 69%
    12:00 +2°C° 0 mm 2 mps 741 mmHg 67%
    13:00 +3°C° 0 mm 2 mps 741 mmHg 66%
    14:00 +3°C° 0 mm 2 mps 741 mmHg 64%
    15:00 +2°C° 0 mm 2 mps 741 mmHg 68%
    16:00 +3°C° 0 mm 1 mps 741 mmHg 72%
    17:00 +2°C° 0 mm 1 mps 742 mmHg 76%
    18:00 +2°C° 0 mm 1 mps 742 mmHg 77%
    19:00 +2°C° 0 mm 1 mps 743 mmHg 79%
    20:00 +1°C° 0 mm 1 mps 743 mmHg 81%
    21:00 +1°C° 0 mm 1 mps 744 mmHg 81%
    22:00 +1°C° 0 mm 1 mps 744 mmHg 82%
    23:00 +1°C° 0 mm 1 mps 744 mmHg 83%

    1 March, Sunday

    Time Temperature Precipitation Wind Pressure Humidity
    00:00 -2°C° 0 mm 2 mps 745 mmHg 85%
    01:00 -2°C° 0 mm 2 mps 745 mmHg 86%
    02:00 -2°C° 0 mm 2 mps 746 mmHg 87%
    03:00 -2°C° 0 mm 2 mps 746 mmHg 88%
    04:00 -2°C° 0 mm 2 mps 747 mmHg 88%
    05:00 -3°C° 0 mm 2 mps 747 mmHg 89%
    06:00 -2°C° 0 mm 2 mps 748 mmHg 86%
    07:00 0°C° 0 mm 1 mps 748 mmHg 83%
    08:00 0°C° 0 mm 1 mps 749 mmHg 80%
    09:00 +1°C° 0 mm 1 mps 749 mmHg 74%
    10:00 +2°C° 0 mm 1 mps 749 mmHg 68%
    11:00 +3°C° 0 mm 1 mps 749 mmHg 61%
    12:00 +3°C° 0 mm 1 mps 749 mmHg 61%
    13:00 +3°C° 0 mm 2 mps 749 mmHg 61%
    14:00 +3°C° 0 mm 2 mps 749 mmHg 60%
    15:00 +2°C° 0 mm 2 mps 749 mmHg 67%
    16:00 +1°C° 0 mm 2 mps 749 mmHg 73%
    17:00 +1°C° 0 mm 2 mps 750 mmHg 79%
    18:00 -1°C° 0 mm 2 mps 750 mmHg 81%
    19:00 -1°C° 0 mm 3 mps 750 mmHg 83%
    20:00 -1°C° 0 mm 3 mps 750 mmHg 85%
    21:00 -1°C° 0 mm 3 mps 750 mmHg 86%
    22:00 -2°C° 0 mm 4 mps 750 mmHg 87%
    23:00 -2°C° 0 mm 4 mps 750 mmHg 88%

    2 March, Monday

    Time Temperature Precipitation Wind Pressure Humidity
    00:00 -2°C° 0 mm 4 mps 750 mmHg 90%
    01:00 -3°C° 0 mm 4 mps 750 mmHg 92%
    02:00 -3°C° 0 mm 4 mps 750 mmHg 94%
    03:00 -3°C° 0 mm 4 mps 750 mmHg 93%
    04:00 -4°C° 0 mm 5 mps 749 mmHg 93%
    05:00 -4°C° 0 mm 5 mps 749 mmHg 92%
    06:00 -2°C° 0 mm 5 mps 749 mmHg 92%
    07:00 -3°C° 0 mm 6 mps 749 mmHg 91%
    08:00 -3°C° 0 mm 6 mps 749 mmHg 91%
    09:00 -2°C° 0 mm 6 mps 749 mmHg 88%
    10:00 -2°C° 0 mm 6 mps 749 mmHg 85%
    11:00 -1°C° 0 mm 6 mps 749 mmHg 82%
    12:00 -1°C° 0 mm 6 mps 748 mmHg 80%
    13:00 -1°C° 0 mm 6 mps 748 mmHg 78%
    14:00 +1°C° 0 mm 6 mps 748 mmHg 76%
    15:00 +1°C° 0 mm 6 mps 748 mmHg 78%
    16:00 -1°C° 0 mm 6 mps 747 mmHg 81%
    17:00 -1°C° 0 mm 6 mps 747 mmHg 83%
    18:00 0°C° 0 mm 5 mps 747 mmHg 84%
    19:00 0°C° 0 mm 5 mps 747 mmHg 84%
    20:00 0°C° 0 mm 5 mps 747 mmHg 85%
    21:00 0°C° 0 mm 5 mps 748 mmHg 85%
    22:00 0°C° 0 mm 5 mps 748 mmHg 86%
    23:00 0°C° 0 mm 5 mps 748 mmHg 86%
    Show more